ECMWFFLT2_500_spd_234.txt.gz
Wind_Speed
5 4 5 5 4 4 5 5 6 6 7 8 10 11 10 11 12 12 12 12 13 13 13 12 12 12 13 14 15 15 15 15 16 16 16 15 16 16 16 16 16 15 15 15 16 16 16 17 17 18 18 19 19 19 19 18 17 16 16 16 16 15
6 4 3 4 4 4 5 6 7 7 7 7 9 10 9 9 11 12 11 10 9 10 10 10 9 9 11 12 13 13 13 13 13 14 14 14 14 15 15 15 15 15 15 16 16 16 16 16 16 16 16 17 17 17 18 18 17 18 18 18 18 18
5 5 4 4 4 4 5 7 8 8 7 7 8 9 8 8 10 11 10 8 8 9 8 8 7 8 8 9 11 11 10 10 10 10 10 11 12 13 13 13 14 15 16 16 16 16 15 15 15 15 15 15 16 16 17 17 16 16 16 17 18 19
6 5 5 3 3 5 6 7 7 6 6 8 9 9 8 8 9 10 9 8 9 8 7 6 7 7 7 7 7 8 8 8 7 7 6 7 8 9 10 12 13 13 15 16 16 16 16 15 14 14 13 14 14 14 15 15 15 15 15 16 17 18
6 5 4 3 3 5 7 6 5 6 7 9 11 10 9 8 9 10 9 10 10 8 7 7 6 7 7 6 6 7 7 7 6 6 5 5 5 6 7 9 11 12 13 14 15 15 15 15 14 13 12 12 13 14 14 15 14 15 15 16 17 17
5 6 8 6 2 3 5 4 3 6 7 9 11 11 10 9 9 9 8 10 10 8 7 6 5 6 8 7 7 6 5 5 5 5 5 5 4 4 5 7 8 9 11 12 13 13 13 12 12 12 11 11 12 14 15 15 15 15 16 17 17 17
9 10 10 7 3 3 1 1 4 5 6 10 11 11 11 10 11 10 9 10 9 7 6 5 4 5 6 7 7 7 6 5 5 4 4 4 4 4 4 5 5 6 9 11 11 11 11 11 11 11 12 12 12 14 15 15 15 15 16 17 16 16
10 10 11 10 7 6 5 2 4 6 8 10 12 12 12 12 12 11 9 9 7 6 5 4 3 3 3 5 6 7 6 5 5 5 5 4 4 5 5 5 4 5 6 8 9 10 10 11 12 12 12 13 13 13 15 15 15 14 15 15 15 14
8 9 12 13 11 8 5 3 3 5 6 9 11 12 13 12 11 9 8 8 6 5 5 3 3 3 2 3 5 6 6 5 5 6 7 6 6 6 7 7 7 6 5 5 6 7 9 10 10 11 12 11 11 12 14 15 14 13 13 13 13 13
5 7 9 11 12 11 9 7 5 3 5 7 8 9 10 9 7 6 6 5 3 3 4 3 4 5 4 4 5 7 7 6 6 6 7 8 8 9 9 9 9 8 7 6 7 7 8 9 8 10 11 11 9 10 13 14 14 13 13 12 12 12
5 6 8 9 10 11 11 10 9 7 5 6 6 6 5 4 2 2 1 3 3 3 4 3 3 4 4 4 5 7 7 7 7 7 7 8 9 9 9 10 10 9 9 9 9 10 10 10 10 11 10 10 10 11 12 12 13 13 12 12 12 12
5 6 7 8 8 8 8 8 8 8 6 5 4 3 1 1 3 2 1 2 2 2 3 3 3 4 5 5 6 7 8 7 7 7 8 9 9 9 10 10 10 9 10 10 10 10 11 11 12 12 10 10 11 11 11 11 13 13 12 11 11 11
4 5 5 6 6 6 6 6 6 5 5 4 3 2 3 3 3 2 2 2 2 2 3 3 5 6 6 7 7 7 8 8 8 8 8 9 9 10 10 11 11 11 10 11 12 11 11 11 12 12 11 11 12 12 11 12 12 13 13 12 12 12
2 3 3 3 3 4 4 4 4 4 3 3 2 2 3 3 4 4 4 5 5 6 6 7 8 8 9 9 9 9 9 10 10 9 9 10 10 10 11 11 12 12 11 11 12 12 11 11 11 12 11 12 13 12 13 14 13 13 14 14 14 14
1 1 1 0 1 2 3 3 3 3 3 2 1 2 3 4 4 5 5 6 7 8 8 9 10 10 10 10 10 10 11 11 11 11 11 11 12 12 12 13 13 13 13 12 11 11 11 11 12 12 12 13 14 14 14 15 15 15 15 15 15 15
2 2 2 2 1 0 2 3 3 3 3 3 3 4 4 5 5 4 4 4 5 6 7 8 9 9 10 10 10 10 11 12 12 12 13 13 13 13 14 15 16 16 17 16 15 13 12 13 13 13 13 13 14 15 15 16 16 16 16 16 15 15
4 3 4 3 2 2 3 4 5 6 6 6 5 5 5 5 5 5 4 4 4 5 6 7 8 9 10 10 10 10 11 12 12 13 13 14 14 14 15 16 18 19 20 19 19 18 16 16 16 16 15 14 15 16 16 16 17 18 18 17 17 17
6 5 5 4 3 4 4 5 6 6 7 7 6 6 5 4 5 6 6 6 6 7 8 9 10 10 11 11 11 11 12 13 13 13 13 14 14 15 17 17 18 19 20 21 22 21 21 20 21 20 19 17 17 18 17 17 17 18 18 18 18 18
7 6 6 6 5 5 6 6 7 7 7 6 6 7 5 4 5 6 7 8 8 9 10 11 11 11 11 12 12 12 13 14 14 15 15 15 15 16 17 18 19 20 21 21 22 22 22 23 23 22 21 21 21 21 20 19 18 18 17 18 19 19
7 7 7 7 7 7 7 7 7 6 6 5 5 6 7 7 7 8 9 10 11 11 12 12 12 12 12 12 12 12 13 14 15 16 16 17 17 17 18 19 20 21 22 22 22 22 22 22 22 22 22 23 24 24 23 21 20 19 19 20 20 20
8 8 9 9 10 9 9 9 8 7 7 6 5 6 8 9 9 10 11 12 12 12 12 12 11 11 11 10 11 12 12 13 14 15 16 17 18 19 20 21 22 22 23 23 23 23 22 22 21 21 22 23 25 25 24 23 22 22 21 20 21 22
9 10 10 11 12 11 11 11 10 9 8 8 8 8 9 9 10 11 12 12 12 12 11 11 10 10 10 11 11 12 12 13 14 14 15 17 18 20 21 23 24 24 25 25 25 25 24 22 21 21 21 22 23 24 24 24 23 24 22 21 22 23
10 10 11 12 12 12 11 11 10 10 8 8 10 11 11 11 10 11 11 11 10 10 10 10 10 11 11 12 13 13 14 14 15 15 15 16 17 19 20 22 24 25 26 27 27 26 24 23 22 22 22 23 24 24 24 24 24 24 23 22 23 24
9 10 11 11 12 11 10 9 9 10 9 8 9 11 12 11 10 9 9 9 9 9 9 10 11 11 12 13 14 14 15 15 16 16 16 16 16 17 18 20 23 25 26 27 28 27 26 24 23 24 25 25 26 26 26 26 25 25 25 24 25 26
9 9 10 11 11 10 10 10 10 11 11 10 9 10 10 10 9 8 8 8 9 9 10 11 12 12 13 14 15 15 16 16 17 17 17 17 17 17 17 18 20 22 25 26 27 28 27 25 24 25 27 28 28 28 28 29 28 27 27 26 27 28
8 9 10 10 11 11 12 11 11 12 12 11 8 7 8 8 8 8 9 10 11 12 13 13 14 15 15 15 16 17 17 17 18 18 19 19 18 18 17 17 18 20 22 24 26 27 27 26 26 27 29 30 30 30 31 31 31 29 28 29 29 30
9 10 10 11 12 13 13 12 11 10 9 9 8 7 7 7 8 10 11 12 14 15 16 16 17 17 17 17 17 18 18 19 19 19 19 20 20 19 19 19 19 20 21 23 25 26 28 28 28 28 29 31 32 32 32 33 33 31 30 31 31 31
9 9 10 12 12 13 13 11 10 9 8 8 8 8 8 9 10 12 13 14 16 17 17 18 18 18 18 18 18 18 18 19 19 20 20 20 20 20 20 20 20 21 21 22 24 26 27 28 29 29 30 31 33 33 34 34 35 34 32 32 32 33
9 10 11 12 12 12 11 11 10 9 9 10 10 10 11 12 13 14 15 16 17 17 18 18 18 18 17 17 18 18 19 19 19 20 20 20 21 21 21 21 21 22 22 23 24 26 27 28 29 30 30 31 33 34 34 35 35 35 34 33 33 33
8 9 10 10 10 10 11 11 12 12 12 12 12 13 13 14 14 15 16 16 17 18 17 18 18 18 17 17 17 18 19 19 19 20 20 21 21 22 22 22 22 22 23 24 25 26 27 29 30 30 30 31 32 33 34 34 34 35 34 34 33 33
6 7 8 9 9 9 10 12 13 14 15 15 14 13 13 14 14 14 15 16 17 18 18 18 19 18 18 18 18 19 19 19 19 20 20 21 22 22 22 23 23 23 24 25 26 27 28 29 30 30 30 30 30 31 32 32 32 33 33 33 33 32
5 6 8 9 9 9 10 12 14 15 16 16 16 14 14 14 14 15 15 16 17 18 18 18 19 19 18 19 19 19 19 19 20 20 20 21 22 22 23 23 23 24 24 25 26 27 28 29 30 30 30 30 29 30 31 31 31 30 30 30 30 30
6 7 9 10 10 10 11 12 14 16 17 18 17 17 16 16 16 16 17 17 18 19 18 18 19 19 18 19 19 19 19 19 20 20 20 21 22 22 22 22 23 23 24 25 26 27 28 30 30 31 31 30 29 28 29 29 29 28 28 27 27 27
7 8 10 11 12 12 13 14 15 16 18 18 19 19 18 18 17 18 18 17 18 19 18 17 18 19 19 19 19 19 19 19 19 19 20 21 22 22 22 22 23 23 24 25 26 26 27 29 30 31 31 30 29 27 27 26 26 26 25 24 24 24
8 10 11 12 13 14 15 16 16 17 18 19 19 20 20 19 18 17 18 17 17 18 17 16 17 19 19 19 18 18 19 19 19 19 20 21 21 21 21 22 23 24 24 24 25 25 26 27 28 30 31 31 29 27 26 24 24 24 23 22 22 22
10 11 12 13 14 15 17 17 17 18 19 20 20 21 21 20 18 17 17 17 16 16 16 16 17 19 20 19 17 18 18 18 18 18 19 20 20 20 21 22 23 24 24 23 23 23 24 25 26 27 28 29 28 26 24 23 22 22 21 20 20 20
11 11 12 13 15 16 17 17 17 18 19 20 20 21 21 20 19 17 16 16 16 16 15 15 17 18 20 18 16 17 17 17 18 18 18 19 19 20 21 22 23 24 23 22 21 21 21 22 22 23 24 25 26 24 23 22 21 20 19 19 19 19

ECMWFFLT2_500_spd_240.txt.gz
Wind_Speed
7 6 6 6 5 5 4 4 3 3 5 7 6 6 8 9 7 6 7 9 9 8 8 8 7 7 7 6 7 7 7 8 8 9 10 11 12 13 14 15 16 16 17 17 17 17 18 18 19 18 18 18 18 18 18 18 17 17 16 16 16 16
7 7 7 6 6 6 5 5 5 5 5 7 7 8 10 10 8 7 6 7 8 8 8 9 8 8 7 7 8 8 8 9 10 10 11 11 12 14 15 15 16 17 17 18 18 18 18 19 18 18 18 17 17 18 18 18 18 18 18 18 18 18
7 7 7 7 8 8 7 7 7 6 5 6 7 8 10 11 10 8 6 6 7 8 9 9 9 9 9 9 9 9 10 10 11 11 11 12 13 14 15 15 16 17 17 18 18 18 19 19 19 18 17 17 16 17 18 18 19 19 19 19 19 19
7 7 7 8 9 9 9 8 7 7 6 6 7 9 10 11 10 9 8 8 8 7 8 9 10 9 9 9 9 10 10 10 11 11 11 11 12 13 14 14 15 16 16 17 17 17 18 18 18 18 18 17 17 17 17 18 18 19 19 19 19 18
7 7 7 7 8 7 9 9 7 8 8 7 8 9 11 12 11 10 10 10 9 8 8 8 8 8 8 7 8 9 9 9 9 9 9 9 9 10 11 11 11 12 13 14 15 15 16 17 17 18 18 18 17 17 17 17 17 17 18 18 18 17
6 6 6 7 6 6 8 9 8 8 8 8 8 8 10 12 11 11 11 11 10 9 8 7 6 6 6 6 6 6 7 7 7 7 8 8 7 7 7 7 7 8 9 11 12 13 14 15 16 17 18 17 17 17 16 16 16 16 16 16 16 15
2 2 4 5 4 4 6 7 6 5 7 8 7 8 10 11 11 11 11 11 10 10 8 6 6 6 6 6 5 5 5 6 6 7 7 7 7 6 6 5 6 6 7 8 10 12 13 14 15 15 16 16 16 16 15 15 15 15 15 15 15 14
2 2 3 2 1 1 4 6 6 5 7 6 5 9 10 10 10 11 10 11 11 10 9 8 8 7 7 6 6 6 6 6 7 7 7 7 7 7 6 6 6 6 7 7 8 9 11 12 13 14 13 14 14 14 14 14 14 14 14 15 15 14
0 1 3 4 3 4 6 7 8 8 8 4 4 8 9 9 10 9 9 11 11 10 10 10 9 9 8 8 7 7 7 7 7 8 8 8 9 9 8 8 9 9 9 9 8 8 8 10 12 13 13 13 14 14 14 14 14 14 15 15 15 15
1 1 1 3 5 5 5 7 8 8 7 3 4 7 8 9 9 9 9 10 10 10 10 10 9 9 9 8 8 8 8 8 8 9 9 10 11 11 11 11 12 12 12 11 10 9 8 9 11 12 12 12 13 14 14 14 14 14 14 16 16 16
2 1 1 2 5 7 7 6 7 8 9 7 7 8 9 10 11 10 10 10 9 10 10 9 9 9 8 8 8 8 9 9 10 10 10 11 12 12 13 13 14 14 14 13 11 10 10 10 10 11 11 11 12 13 14 14 14 13 14 15 16 16
3 1 1 2 4 7 9 9 9 10 12 12 11 10 9 9 10 10 9 8 8 8 8 9 8 8 8 8 8 9 9 10 11 11 11 12 12 13 14 14 15 15 14 13 13 12 11 10 11 11 12 12 13 14 15 15 14 14 14 14 15 16
3 2 2 3 4 6 9 10 10 11 12 13 11 9 8 8 8 8 7 7 7 7 8 8 8 8 8 8 9 9 9 10 10 11 11 12 13 14 14 15 15 15 15 15 15 14 13 12 12 13 13 14 15 15 16 16 15 14 14 15 16 17
3 3 3 4 4 6 8 10 10 10 10 10 9 8 7 7 6 6 7 7 8 8 8 8 8 9 9 10 10 10 10 10 11 11 11 12 12 13 14 15 15 16 17 17 17 16 15 14 14 15 15 15 16 17 17 17 17 16 16 17 17 18
5 4 4 5 5 5 8 9 9 9 8 8 7 6 6 6 6 7 7 7 8 9 9 9 9 10 11 11 12 12 12 12 12 12 12 12 13 13 14 14 15 16 17 18 19 19 18 17 17 17 17 16 16 18 18 18 18 18 18 19 19 20
7 7 6 5 5 5 6 8 9 8 8 7 7 6 6 6 6 6 7 7 8 9 9 10 10 11 12 13 13 12 13 13 13 13 13 14 14 14 15 15 16 16 17 19 19 20 21 21 20 20 18 17 17 18 19 19 19 20 20 20 21 22
9 9 8 7 6 6 6 7 7 7 7 7 7 7 7 7 7 7 8 8 9 9 10 10 11 12 13 13 12 12 12 13 13 13 14 14 15 16 16 17 17 18 19 20 20 21 22 23 23 22 21 20 19 19 20 20 20 20 21 22 23 25
11 11 9 8 7 7 6 6 6 6 6 7 7 8 8 9 9 9 10 10 10 10 11 11 11 12 12 13 13 13 14 14 14 15 15 16 17 17 18 18 19 20 20 21 21 22 23 24 24 24 24 24 23 23 22 22 22 22 22 23 24 26
13 12 10 9 8 7 6 6 6 6 6 8 9 9 9 9 9 10 10 11 11 11 11 11 12 12 13 14 15 15 16 17 17 17 18 18 19 19 20 20 21 21 22 23 23 23 24 25 25 25 26 26 27 27 27 27 26 26 25 24 25 27
13 12 11 10 9 8 7 6 6 6 7 9 10 10 10 9 10 10 11 12 12 12 12 12 13 14 15 16 17 18 19 20 20 20 20 21 21 22 22 23 23 23 24 25 25 25 26 27 27 27 28 28 29 30 30 30 30 30 29 28 28 29
13 12 12 11 10 9 7 6 6 7 8 10 10 10 11 11 11 13 14 14 14 14 14 14 15 16 17 18 18 19 20 20 20 20 20 20 21 21 22 23 24 25 26 27 28 28 29 30 29 29 30 30 31 32 32 32 33 33 32 32 31 32
12 11 11 10 9 8 6 6 7 8 9 11 11 11 11 12 13 14 15 15 15 15 15 16 17 18 18 18 19 18 18 18 17 17 17 17 17 18 19 20 21 23 24 25 27 29 30 31 32 31 31 32 32 33 33 34 34 34 34 34 34 34
10 9 9 8 8 7 7 7 8 9 9 10 11 12 12 13 13 15 16 16 16 16 16 17 18 18 18 17 17 16 16 16 16 16 16 16 17 17 18 18 19 20 21 22 24 26 28 30 32 32 32 32 33 34 34 35 35 35 35 35 35 36
8 7 7 7 8 8 8 8 9 9 9 10 11 13 14 14 14 15 16 16 16 16 16 17 17 17 16 16 16 16 16 17 17 18 18 18 18 18 19 19 19 20 20 21 22 23 25 27 29 30 31 31 32 33 34 35 35 36 36 36 36 37
9 8 8 8 9 8 8 9 9 9 10 11 12 13 14 14 14 15 15 15 15 15 15 16 15 15 15 15 16 17 17 18 18 19 19 20 20 20 21 21 21 21 22 22 23 23 24 25 26 28 29 30 30 30 32 34 35 36 36 36 37 37
10 9 10 10 9 9 9 9 9 10 10 11 11 12 12 13 13 13 13 13 13 13 14 14 15 15 15 16 18 19 19 20 20 20 21 21 21 22 22 23 23 23 24 24 24 25 25 26 27 28 28 29 29 29 30 31 32 34 36 36 37 38
11 10 11 11 10 9 9 8 9 10 10 10 10 10 10 11 11 11 11 11 11 12 13 14 16 16 17 18 19 19 20 20 20 21 21 22 22 23 23 24 24 25 25 26 26 26 27 27 28 29 29 29 29 29 30 29 30 32 34 35 37 37
11 11 12 11 10 10 9 9 9 9 9 8 8 9 10 11 11 11 11 11 11 11 13 14 16 17 18 18 19 19 19 19 19 20 21 21 22 23 23 23 24 25 25 26 27 28 28 29 29 30 30 30 30 30 30 30 30 31 32 33 35 36
12 12 11 10 10 10 9 8 8 8 8 8 8 10 11 11 11 10 10 11 11 12 13 14 16 17 17 18 19 19 19 19 19 20 21 21 22 22 22 23 23 24 25 26 27 28 28 29 30 30 31 31 31 31 31 31 31 31 32 33 33 34
11 11 10 9 9 9 8 8 7 7 7 8 9 11 11 12 11 10 11 12 13 13 14 15 17 18 18 19 19 20 20 20 20 21 21 21 21 22 22 23 23 24 24 25 25 26 27 28 28 29 30 30 30 31 31 31 31 32 32 33 33 33
9 9 8 8 7 7 7 7 8 8 8 10 11 12 13 14 13 12 11 12 14 15 15 16 18 19 19 19 20 21 21 21 22 22 22 22 22 23 23 24 24 24 25 25 26 26 26 27 27 28 28 28 29 29 30 31 31 31 33 34 33 31
8 8 7 6 6 7 7 8 9 10 10 12 13 14 15 15 15 14 13 13 14 16 17 17 18 20 20 20 21 22 22 22 23 23 23 23 23 24 24 25 25 25 25 26 26 26 27 27 27 28 28 28 28 28 29 29 30 30 32 33 33 31
7 7 7 6 7 8 8 9 10 11 12 13 14 16 17 17 17 16 15 15 16 18 19 19 19 19 20 21 21 21 22 23 24 24 24 24 24 25 25 25 25 25 25 26 26 26 27 27 27 28 28 28 28 29 29 29 29 28 28 30 31 31
7 8 8 8 8 8 9 10 11 12 13 14 15 17 18 19 19 19 17 17 18 19 20 20 20 20 20 20 21 21 22 24 25 25 25 24 24 24 25 25 25 25 25 25 26 26 26 27 27 27 28 28 29 29 29 29 28 27 26 28 28 27
8 9 9 9 9 10 10 11 12 13 14 15 16 17 18 19 19 19 18 17 17 18 20 21 21 20 19 19 20 20 21 23 25 25 25 24 24 24 24 24 24 24 24 25 25 25 26 26 27 27 28 29 28 27 26 26 25 24 24 25 25 24
10 10 11 12 12 12 13 13 14 14 15 15 16 16 17 18 18 18 17 17 17 18 19 20 20 19 18 18 19 20 22 23 24 24 24 23 23 22 22 22 23 23 23 24 24 25 25 26 27 28 28 26 25 23 22 21 21 20 20 21 22 22
13 14 15 15 15 15 16 16 16 16 16 16 16 16 16 17 17 17 17 17 17 18 19 19 19 18 18 18 20 21 22 23 23 23 22 22 21 20 20 21 21 22 22 22 23 24 25 26 27 26 24 21 20 19 18 17 16 16 15 16 17 18

ECMWFFLT2_500_spd_246.txt.gz
Wind_Speed
4 4 5 7 6 6 5 5 6 3 4 6 6 5 6 6 6 7 9 10 11 11 12 13 13 13 12 12 11 11 10 10 10 10 10 11 12 12 12 11 11 11 11 11 11 10 10 11 11 11 12 12 12 13 14 15 15 15 16 16 16 16
5 5 5 6 5 5 5 6 5 2 2 4 5 3 4 3 3 5 6 8 9 10 12 13 13 13 13 12 12 11 11 10 10 9 10 10 10 11 11 12 12 12 12 12 11 11 11 11 12 12 12 13 13 14 15 16 17 17 18 18 17 17
5 6 6 6 6 5 5 5 4 3 1 3 3 2 3 3 3 4 4 5 6 9 11 12 12 12 13 12 12 11 11 10 9 9 9 9 10 10 11 11 12 12 11 12 11 11 12 12 13 13 13 13 14 14 15 16 17 17 18 17 17 16
5 6 6 5 6 6 5 5 4 4 4 4 4 3 4 4 4 5 5 5 5 7 8 9 11 11 12 12 12 11 10 10 10 10 10 10 10 10 11 11 12 11 11 11 12 12 13 13 14 14 14 15 15 15 15 15 16 16 16 16 16 15
4 4 4 4 5 5 5 5 5 6 7 7 7 6 5 5 6 6 7 7 7 7 8 9 9 11 12 12 12 11 10 11 12 11 10 11 11 11 10 11 11 11 11 11 11 12 13 14 14 14 15 15 15 16 16 15 16 15 15 16 16 15
3 3 4 5 5 5 5 5 5 7 9 10 10 9 7 7 6 6 7 8 9 9 9 10 10 12 13 13 12 12 12 12 11 10 10 10 10 10 10 10 10 10 10 9 9 10 11 13 14 14 15 15 16 16 16 16 16 14 15 17 16 15
1 2 4 4 3 4 5 6 6 6 8 9 10 10 10 8 6 6 7 8 8 9 10 10 11 12 13 12 12 12 12 11 11 10 10 10 9 9 9 8 8 8 8 8 8 8 9 10 11 12 13 14 15 15 16 16 16 15 16 17 16 16
4 3 3 2 2 2 2 5 6 5 5 4 6 10 11 8 6 7 7 8 9 10 10 10 10 11 12 11 11 11 11 11 10 10 10 10 9 8 8 8 8 8 8 8 8 8 8 8 9 10 11 13 14 14 15 15 15 15 16 17 17 17
4 3 2 2 2 1 3 1 2 2 3 4 5 9 10 7 7 8 8 9 11 11 10 9 10 11 11 10 10 11 10 10 10 9 9 9 8 8 8 8 8 9 9 9 9 9 9 9 9 10 10 11 13 14 14 15 15 15 16 17 18 18
2 2 2 2 2 1 3 3 2 4 3 6 7 8 8 7 9 9 9 9 11 12 10 10 10 10 10 10 9 9 9 9 9 8 8 8 9 9 9 9 9 10 10 10 10 11 11 11 12 12 12 12 12 14 14 15 15 15 16 18 18 18
3 2 2 3 2 1 4 6 6 6 6 8 8 7 7 8 9 9 9 9 10 11 10 10 10 10 10 9 8 9 9 9 9 9 9 9 10 10 10 11 11 12 13 13 13 13 13 13 14 14 14 14 14 15 15 15 15 16 17 18 18 18
4 3 3 3 3 3 3 6 7 8 9 8 7 7 8 9 9 9 9 9 10 10 10 10 10 10 9 8 8 8 9 10 10 10 10 10 11 11 12 12 13 14 15 15 15 15 15 16 16 15 15 15 16 16 17 17 16 16 17 18 19 18
4 4 4 4 4 4 4 5 6 7 8 8 7 8 9 9 8 8 9 10 10 11 11 10 10 9 9 8 9 9 10 10 11 11 11 11 11 12 13 14 15 16 16 16 16 17 17 17 17 17 17 17 17 17 18 18 18 18 18 18 18 19
4 4 4 4 5 5 5 5 6 7 7 7 8 7 7 7 7 8 9 11 12 12 12 11 10 10 10 10 10 11 11 12 12 11 11 12 12 13 14 15 16 17 17 18 18 18 18 19 18 18 18 18 19 19 19 19 19 19 19 19 19 21
5 4 4 4 4 5 6 5 5 6 7 7 8 7 7 7 7 8 9 10 10 10 10 10 11 11 12 12 12 13 12 12 12 12 12 13 13 14 15 16 16 17 18 19 19 18 19 19 20 20 20 20 20 20 21 21 20 20 20 20 21 21
5 5 4 4 4 5 6 6 5 5 6 7 7 7 7 8 8 8 8 9 10 10 10 11 12 12 13 13 13 13 13 13 14 14 15 15 15 15 16 16 17 18 18 19 19 19 20 20 20 21 21 22 22 22 23 23 22 22 22 22 22 22
7 6 5 5 5 6 6 6 6 6 6 7 7 7 7 8 8 8 9 10 10 11 11 12 12 13 13 13 13 14 14 15 15 16 17 17 17 18 17 17 18 18 19 20 20 21 21 22 22 22 22 23 23 24 24 25 25 25 24 24 24 24
8 8 7 6 6 7 7 7 7 8 8 9 9 9 9 9 9 9 10 10 11 12 12 13 13 13 14 14 15 15 16 16 17 17 18 18 19 19 19 19 19 20 20 20 21 21 22 23 24 23 23 23 24 24 25 26 26 27 27 27 28 28
9 9 8 7 7 8 8 8 8 9 9 10 10 10 10 10 10 11 11 12 13 14 14 14 15 15 15 16 16 16 17 17 17 18 19 19 20 20 21 21 22 22 22 22 22 22 23 24 25 25 25 25 25 25 26 26 27 28 29 30 31 31
10 9 9 8 8 9 10 10 10 10 11 11 11 11 11 11 12 12 13 14 14 15 15 16 16 16 16 16 17 17 17 18 18 19 20 21 21 22 22 22 23 23 24 24 23 23 24 25 26 26 27 27 27 28 28 28 29 29 30 30 32 33
10 10 9 9 9 10 10 11 11 12 12 12 13 13 12 12 13 13 14 15 15 16 16 17 17 17 17 17 17 18 18 19 20 20 21 22 22 22 22 22 22 22 23 23 23 22 23 24 25 26 27 28 28 29 29 30 31 31 32 32 33 34
11 10 10 9 10 10 11 11 12 12 13 13 14 14 14 14 14 15 15 16 16 17 17 17 17 18 18 18 18 19 19 20 20 20 20 21 21 20 20 20 21 21 21 22 22 22 23 23 24 24 25 26 27 28 28 29 30 30 31 32 34 34
12 11 10 10 10 11 11 12 12 13 13 14 14 15 15 15 15 16 16 17 18 18 18 18 18 18 18 19 19 19 19 19 19 18 18 18 18 18 19 20 21 22 23 23 24 24 24 25 25 25 26 26 27 28 28 28 28 29 29 31 32 33
13 13 11 10 10 11 12 12 13 14 14 15 15 15 15 15 16 16 16 18 19 20 20 20 20 19 19 19 19 19 18 17 17 16 16 17 17 18 20 21 22 23 24 25 25 25 26 26 26 27 27 28 28 29 30 30 30 30 30 31 31 32
13 13 12 10 10 10 11 12 13 14 15 15 15 15 16 16 16 17 17 18 19 20 21 22 21 21 20 20 19 18 17 17 17 17 17 18 19 20 22 23 24 25 26 26 27 27 27 27 28 28 28 29 29 30 31 31 32 32 32 32 32 32
13 12 11 10 10 10 11 13 14 15 15 14 14 15 16 16 17 17 17 18 19 20 21 21 22 21 21 20 19 19 18 18 18 19 20 21 22 23 23 24 25 26 27 27 28 28 28 28 29 29 29 30 30 31 31 31 31 32 33 34 33 33
14 13 11 11 11 11 12 13 14 15 15 15 15 15 16 16 16 16 17 17 18 18 18 19 20 20 21 21 20 20 20 20 21 22 23 23 24 24 25 25 26 27 28 28 29 29 30 30 30 30 30 30 31 31 32 32 33 34 34 35 35 34
14 15 15 13 11 11 12 13 14 15 15 15 15 15 15 16 16 16 17 17 17 17 17 17 19 20 21 21 21 21 21 22 22 23 24 24 25 26 26 27 27 27 28 28 29 30 30 31 31 31 31 31 31 31 31 32 33 33 34 36 35 34
13 14 15 13 11 11 12 12 13 14 14 14 14 14 15 15 16 16 17 18 18 18 18 18 19 20 22 22 23 23 23 23 23 23 24 24 25 25 26 27 27 27 27 27 28 29 30 30 31 31 31 31 31 31 31 31 32 33 34 34 33 32
11 12 12 11 11 11 11 12 13 13 14 14 14 14 14 15 16 17 18 19 20 20 20 20 21 22 23 24 25 25 25 25 24 24 24 24 24 25 25 26 26 26 27 27 28 29 29 30 31 31 32 32 31 31 30 30 30 30 30 32 32 31
12 11 11 10 11 11 11 12 12 13 13 14 14 14 15 16 17 18 19 20 21 22 22 22 22 23 23 24 25 25 25 24 23 23 23 23 24 24 25 25 26 26 27 27 28 29 30 30 30 31 30 30 28 27 27 26 26 25 26 30 32 31
13 12 11 10 10 11 12 12 12 13 13 14 15 15 16 17 18 19 20 20 21 21 22 22 22 22 23 23 23 24 24 24 23 23 23 23 23 24 24 25 25 26 27 28 28 29 29 29 28 27 26 25 24 23 23 22 23 22 24 28 31 30
13 12 12 11 11 12 13 13 13 14 14 15 15 16 16 17 18 19 20 20 21 21 21 22 22 22 22 22 23 23 24 24 23 23 23 23 23 23 23 24 25 26 28 28 28 28 27 26 25 24 22 21 21 21 22 22 22 23 24 27 30 31
12 12 12 11 12 12 13 14 14 15 15 16 16 16 17 18 19 20 20 21 21 21 21 21 21 21 22 21 22 22 23 23 23 23 23 22 22 23 23 25 26 27 28 28 26 25 23 22 21 20 20 21 21 21 22 23 23 24 25 26 28 29
12 12 12 12 13 13 13 14 15 16 17 17 18 18 18 18 19 20 21 21 20 20 20 20 20 20 20 20 21 21 22 22 22 22 22 22 22 23 24 25 27 27 26 25 22 20 18 18 18 19 20 21 22 22 23 24 24 24 24 24 24 25
13 13 13 13 14 14 15 16 17 18 19 20 21 21 20 20 20 20 20 20 20 20 19 19 19 20 20 20 21 21 21 21 21 21 21 21 22 23 24 26 26 24 22 20 18 16 16 17 17 18 19 21 22 23 23 22 21 20 21 21 21 21
14 15 15 16 16 17 18 19 20 21 21 22 22 22 22 21 21 20 20 19 19 19 18 18 19 20 20 21 21 22 22 21 21 21 21 21 22 23 25 25 23 20 17 16 15 15 16 17 17 18 20 21 22 21 19 18 17 17 18 19 19 17

ECMWFFLT2_500_spd_252.txt.gz
Wind_Speed
8 9 8 7 5 4 6 7 8 8 2 3 4 4 5 7 8 7 5 4 5 5 6 8 8 6 6 6 6 6 6 6 5 5 5 6 9 11 13 13 14 14 14 14 14 14 15 16 17 17 16 17 17 17 17 18 19 19 18 18 16 16
7 7 6 5 5 5 5 6 6 6 4 3 3 2 5 8 8 7 5 5 5 3 5 7 6 5 4 5 6 7 7 6 6 5 5 5 6 7 8 10 11 12 12 13 13 14 14 14 14 14 15 14 14 14 15 17 17 17 16 16 16 15
6 7 6 5 5 5 5 5 4 4 4 5 5 2 4 7 6 5 3 4 3 1 2 4 4 4 4 4 6 7 7 6 6 5 5 6 6 6 6 7 8 10 10 11 11 12 11 12 12 13 13 12 12 14 16 16 16 16 15 15 15 16
6 7 6 5 5 4 5 5 3 3 3 5 5 3 2 3 2 2 1 2 4 7 6 5 4 5 4 4 5 6 7 6 5 6 6 6 6 7 6 7 8 9 9 9 10 11 11 11 12 13 13 12 12 15 16 16 16 15 14 16 16 16
6 6 6 6 5 5 5 4 3 2 1 2 2 2 2 2 2 2 2 3 1 6 7 5 4 4 4 5 5 5 7 7 7 7 7 7 8 8 7 7 9 9 8 9 9 10 11 12 11 11 12 11 11 14 16 16 16 16 16 17 17 17
6 6 7 6 5 5 5 4 3 3 3 2 3 4 3 2 2 2 1 2 4 1 1 1 1 1 3 4 3 4 6 6 6 7 6 7 8 8 6 7 8 8 8 8 8 7 8 10 9 9 10 10 10 12 13 14 15 16 15 16 18 18
5 5 6 5 5 6 6 5 4 5 5 4 4 4 3 2 2 2 3 3 5 5 4 2 1 2 3 3 3 3 4 4 5 5 4 4 5 4 4 5 6 6 7 6 5 4 5 7 7 9 9 9 10 11 11 12 13 14 15 16 18 18
3 4 5 5 5 6 7 7 6 5 5 5 5 5 4 3 4 4 5 5 6 8 8 7 5 6 5 5 5 5 5 4 3 3 2 3 3 2 2 3 4 4 6 4 4 4 5 7 7 9 10 9 10 12 12 12 12 13 15 17 17 17
3 4 5 4 5 6 7 7 8 7 4 4 3 3 2 3 4 5 5 5 5 6 8 8 7 7 7 8 8 8 8 8 6 4 3 3 2 2 3 3 4 4 5 6 6 6 7 8 8 10 10 10 12 13 12 13 14 15 16 16 16 17
2 4 5 5 5 6 6 6 8 8 7 3 1 3 4 2 2 4 4 4 4 5 7 8 8 7 7 6 6 7 8 9 9 7 6 5 4 5 4 4 7 6 5 8 9 8 8 10 11 12 12 13 15 13 10 14 16 16 15 15 16 17
1 1 3 4 5 5 6 6 5 6 7 4 3 6 6 3 1 2 3 4 4 5 6 8 8 8 6 5 4 5 6 7 8 7 6 6 6 7 6 6 9 8 8 9 10 10 10 11 13 14 13 13 15 13 12 15 17 15 16 16 16 16
1 2 4 5 5 5 5 5 5 5 7 6 6 7 6 4 3 3 4 4 5 5 5 6 6 6 5 4 4 5 6 7 7 7 7 7 7 9 9 8 10 10 10 10 11 11 11 12 13 14 14 14 14 15 15 16 17 17 19 19 18 19
2 3 4 4 4 4 4 4 4 5 6 7 7 6 5 5 4 4 4 4 4 4 4 4 5 5 5 5 6 6 7 7 8 8 8 9 9 10 11 10 11 12 11 11 12 12 13 13 13 14 15 15 15 17 17 16 18 18 20 21 21 21
3 3 3 4 4 3 4 3 4 4 5 7 7 6 5 4 3 3 4 4 4 4 4 3 4 5 6 7 7 7 7 8 8 9 9 10 11 11 11 12 13 13 13 13 13 13 14 14 14 15 15 15 16 17 19 19 19 19 20 21 21 21
3 3 4 4 4 4 4 3 3 4 5 6 6 5 3 3 3 3 4 5 4 3 4 4 4 5 6 7 8 8 9 9 10 11 12 11 11 11 11 12 14 15 15 15 16 16 16 16 16 17 17 16 17 18 20 20 20 21 22 21 22 23
2 3 4 4 5 5 4 3 2 2 2 3 3 2 3 3 3 4 5 5 4 5 5 5 6 6 7 8 9 10 11 11 12 12 12 12 11 12 13 14 15 15 16 17 18 18 18 18 19 19 19 18 18 20 21 21 21 22 22 22 23 25
3 3 3 4 4 4 4 4 3 2 2 2 3 3 4 4 4 5 5 5 6 6 6 7 8 8 9 10 10 11 12 12 12 12 12 13 13 14 14 15 16 16 17 18 19 19 19 20 20 21 21 21 20 21 22 22 22 23 23 23 24 25
3 3 2 2 3 4 5 5 6 5 4 4 4 5 5 6 6 6 6 7 7 7 8 9 9 9 10 10 11 11 12 13 13 14 14 14 15 15 16 16 17 17 18 19 20 21 21 22 22 22 22 22 22 22 22 22 23 23 24 24 24 24
4 4 3 3 3 4 5 5 6 7 7 6 6 7 7 7 8 8 9 9 9 9 10 10 11 11 12 12 13 13 14 14 15 15 16 16 16 17 17 18 19 19 20 21 22 22 22 23 22 22 22 22 23 22 22 23 23 24 25 24 23 24
5 5 5 4 4 4 5 5 6 7 8 9 9 9 9 10 10 10 11 11 12 12 12 12 13 13 14 14 15 15 16 16 17 17 18 18 19 19 20 20 21 22 22 22 23 23 23 23 23 23 22 23 24 25 24 24 24 25 26 25 25 26
5 5 5 5 5 6 6 6 7 7 8 9 10 10 11 11 11 11 12 12 13 13 14 14 14 14 15 15 16 17 17 18 18 19 19 20 20 21 22 22 22 23 23 23 23 23 23 24 24 24 25 25 26 27 27 26 26 27 28 28 28 28
4 5 5 5 6 7 7 6 7 7 8 9 9 9 10 11 11 12 12 12 13 14 14 14 15 15 15 16 16 17 18 18 19 19 20 21 21 22 22 23 23 23 24 23 24 23 24 24 25 25 26 27 28 29 30 29 29 29 30 30 30 30
5 5 6 6 6 7 7 7 6 7 7 7 8 8 9 9 10 11 11 12 12 13 14 15 15 15 15 16 16 17 17 18 19 19 20 20 21 21 22 22 23 23 24 23 24 24 24 25 26 27 27 28 29 29 30 30 30 31 32 32 31 31
6 5 5 5 6 6 6 7 6 6 6 6 7 7 8 9 10 11 11 12 13 13 14 15 15 16 16 17 17 17 17 18 18 18 19 19 19 20 20 20 21 22 23 23 24 24 25 26 27 28 29 29 30 30 30 30 31 32 31 31 31 32
6 5 5 5 6 6 6 6 6 6 7 7 8 9 10 11 12 12 12 13 13 14 15 15 15 16 17 17 17 18 18 18 18 18 18 18 19 19 19 20 21 22 23 24 24 25 26 27 28 29 30 31 31 31 31 30 30 31 30 30 31 32
7 6 6 6 7 7 7 6 7 8 9 10 11 12 13 14 14 15 14 14 14 14 15 15 15 16 16 17 17 17 18 18 18 18 19 19 20 20 21 21 22 23 24 25 26 27 27 28 29 30 30 30 30 30 30 30 29 29 30 31 31 31
9 8 8 8 8 9 9 9 9 11 12 13 14 15 16 16 16 16 16 16 15 15 15 15 16 16 16 17 17 18 18 18 19 19 20 20 21 22 23 24 24 25 25 26 26 27 27 27 28 28 29 29 28 28 28 29 29 29 29 30 31 31
10 10 9 9 10 10 11 12 13 14 14 15 16 17 17 17 17 16 16 16 16 16 16 16 16 16 17 18 18 18 19 19 19 19 20 21 22 23 23 24 24 25 25 25 25 26 26 27 27 27 28 28 29 29 29 30 30 30 30 30 30 32
11 11 11 11 11 12 12 13 15 16 16 17 18 17 17 16 16 17 17 17 17 17 17 17 17 17 17 18 18 18 19 19 19 19 20 20 21 22 22 23 24 25 25 26 26 27 27 27 28 28 28 29 29 30 31 31 31 31 31 31 31 31
12 12 13 13 13 13 14 15 17 18 18 19 18 17 16 15 16 17 17 18 19 19 19 19 18 18 18 18 18 19 19 20 20 20 21 21 22 23 24 24 25 25 26 27 27 27 28 28 28 29 29 30 30 31 32 32 33 32 31 30 30 30
12 13 13 14 15 15 15 16 17 18 18 17 16 15 15 15 16 17 17 18 19 20 21 20 20 19 19 19 20 20 20 21 21 22 22 23 23 24 25 25 26 26 26 27 27 27 27 27 28 28 29 30 30 31 31 31 32 30 27 27 26 25
11 12 13 13 14 14 15 15 15 16 16 16 16 15 15 16 17 18 18 18 19 21 22 22 22 21 21 21 21 21 21 21 22 22 22 23 23 23 24 25 25 26 27 27 27 27 27 27 27 27 28 28 29 29 28 28 28 26 24 24 24 24
10 11 11 12 13 14 14 14 14 15 16 17 18 17 17 17 18 18 19 19 20 22 24 24 24 23 23 23 22 22 22 22 22 21 21 22 22 23 24 25 25 26 26 27 27 27 27 27 27 28 27 27 26 25 24 24 24 23 22 23 24 25
12 12 12 12 13 14 14 15 15 15 16 18 19 19 19 19 19 19 20 21 22 24 25 26 26 26 26 25 24 23 23 22 20 19 20 21 23 24 24 25 25 25 25 26 27 27 28 28 28 27 26 24 22 21 20 20 20 20 21 23 24 25
14 14 14 14 15 15 15 16 16 16 16 18 20 21 21 21 21 21 22 22 24 25 26 26 27 28 28 26 24 23 22 21 19 19 20 22 23 24 25 25 24 24 24 25 26 27 27 28 27 25 23 20 19 18 17 17 19 20 21 23 22 22
16 15 15 16 17 17 17 17 17 17 17 18 20 22 22 22 22 23 23 24 25 26 26 26 27 28 28 26 23 22 22 21 19 20 22 24 24 24 24 24 23 22 23 24 25 26 26 25 24 22 19 17 17 17 16 17 20 20 19 19 18 18
17 17 17 17 18 18 18 18 18 18 17 18 20 21 22 21 21 22 22 23 24 25 25 25 25 27 28 27 24 22 22 21 21 22 24 25 25 24 24 22 21 21 22 23 25 25 24 22 20 19 17 16 16 17 17 18 19 18 15 13 14 15